,Lone Pine,Lone Pine,Lone Pine Met,Lone Pine Met,Lone Pine Met,Lone Pine Met,Lone Pine Met,Lone Pine Met,Lone Pine Met,Lone Pine Met,Lone Pine Met,Lone Pine Met,Lone Pine Met,Lone Pine Met,Lone Pine Met,Lone Pine Met
,PM10_1HR,PM10_1HR,m_ASPD,m_ASPD,m_DIR,m_DIR,m_MXASPD,m_MXASPD,m_MXTIME,m_MXTIME,m_OUTTEMP,m_OUTTEMP,m_STD,m_STD,m_VSPD,m_VSPD
,,,,,,,,,,,,,,,,
Date,Value,Null Code,Value,Null Code,Value,Null Code,Value,Null Code,Value,Null Code,Value,Null Code,Value,Null Code,Value,Null Code
01-May-2018 00:00,0.2,,4.275,,331.4,,7.79,,10,,8.65,,10.73,,4.2,
01-May-2018 01:00,3.2,,4.709,,336,,8.38,,138,,8.7,,10.14,,4.636,
01-May-2018 02:00,5.3,,4.752,,342.9,,9.51,,202,,8.89,,10.89,,4.666,
01-May-2018 03:00,10,,2.709,,34.9,,6.42,,305,,8.68,,35.32,,2.194,
01-May-2018 04:00,8.2,,1.459,,151.4,,3.333,,400,,8.67,,62.97,,0.577,
01-May-2018 05:00,11.3,,1.192,,241.5,,2.059,,501,,8.51,,47.35,,0.785,
01-May-2018 06:00,9,,1.407,,337,,2.745,,659,,8.39,,16.4,,1.349,
01-May-2018 07:00,-4.3,,4.143,,326.2,,8.48,,728,,9.61,,16.13,,3.979,
01-May-2018 08:00,0.5,,5.282,,308.3,,8.58,,846,,10.53,,15.55,,5.087,
01-May-2018 09:00,2.2,,4.91,,317.7,,8.87,,926,,11.63,,18.61,,4.651,
01-May-2018 10:00,2.9,,4.181,,321.1,,8.58,,1057,,12.98,,19.36,,3.943,
01-May-2018 11:00,5.7,,5.075,,317.7,,9.8,,1148,,13.47,,18.63,,4.807,
01-May-2018 12:00,-1.5,,4.941,,336.5,,10.14,,1223,,13.62,,18.17,,4.692,
01-May-2018 13:00,4,,2.939,,334,,8.38,,1334,,14.71,,27.19,,2.608,
01-May-2018 14:00,11.1,,3.789,,11.4,,12.35,,1442,,14.88,,29.32,,3.293,
01-May-2018 15:00,8.6,,3.087,,19.3,,8.28,,1529,,13.8,,59.13,,1.442,
01-May-2018 16:00,22.2,,5.911,,138.8,,10.39,,1623,,12.12,,17.01,,5.65,
01-May-2018 17:00,16,,5.138,,168.9,,11.32,,1714,,10.59,,22.91,,4.727,
01-May-2018 18:00,11.2,,3.689,,143.1,,7.69,,1855,,9.46,,31.71,,3.124,
01-May-2018 19:00,6,,4.039,,136,,7.64,,1907,,8.91,,53.24,,2.295,
01-May-2018 20:00,8.4,,2.155,,140.9,,5.146,,2005,,8.68,,53.99,,1.197,
01-May-2018 21:00,4.7,,1.131,,248.6,,3.235,,2113,,8.32,,29.69,,0.979,
01-May-2018 22:00,5.1,,1.567,,172.1,,3.235,,2215,,7.64,,45.79,,1.066,
01-May-2018 23:00,6.2,,1.297,,201.7,,2.402,,2336,,7.51,,27.94,,1.142,
02-May-2018 00:00,1.5,,0.826,,20.6,,1.716,,52,,6.71,,40.21,,0.623,
02-May-2018 01:00,4.9,,1.854,,306.7,,2.843,,120,,5.91,,12.29,,1.811,
02-May-2018 02:00,2.6,,2.528,,324.8,,4.264,,255,,5.12,,11.48,,2.477,
02-May-2018 03:00,4.3,,4.674,,350.3,,8.18,,328,,6.62,,11.78,,4.575,
02-May-2018 04:00,2.5,,4.632,,346.1,,7.01,,428,,5.33,,14.4,,4.486,
02-May-2018 05:00,4.7,,4.039,,328.8,,6.371,,526,,5.82,,11.63,,3.955,
02-May-2018 06:00,8.5,,4.426,,344.7,,7.2,,624,,6.85,,14.5,,4.284,
02-May-2018 07:00,6.5,,4.204,,0.6,,6.518,,746,,10.5,,12.7,,4.101,
02-May-2018 08:00,-10.9,,6.064,,338.6,,10.34,,836,,14.83,,15.29,,5.848,
02-May-2018 09:00,3.6,,6.366,,332.9,,10.29,,958,,16.36,,15.46,,6.134,
02-May-2018 10:00,-1.6,,4.852,,336,,10.63,,1025,,17.63,,22.88,,4.465,
02-May-2018 11:00,7.5,,4.136,,348.7,,9.21,,1103,,18.38,,34.52,,3.384,
02-May-2018 12:00,9.6,,5.271,,60.7,,11.66,,1211,,18.84,,27.82,,4.649,
02-May-2018 13:00,2.2,,2.853,,340.1,,7.15,,1342,,19.96,,46.13,,1.928,
02-May-2018 14:00,5.3,,3.294,,319.4,,9.31,,1438,,20.43,,42.05,,2.406,
02-May-2018 15:00,7.8,,3.794,,20.9,,8.18,,1548,,20.57,,21.35,,3.53,
02-May-2018 16:00,5.8,,2.523,,354.9,,7.06,,1601,,20.8,,36.5,,2.011,
02-May-2018 17:00,18,,2.818,,221.2,,8.43,,1755,,20.54,,45.83,,1.916,
02-May-2018 18:00,14.2,,4.418,,169.4,,7.74,,1804,,18.72,,10.09,,4.35,
02-May-2018 19:00,18.3,,4.01,,150.6,,8.28,,1945,,17.56,,13.67,,3.896,
02-May-2018 20:00,16.1,,4.814,,149.9,,7.4,,2044,,16.72,,15.92,,4.628,
02-May-2018 21:00,10.5,,3.773,,144.3,,5.783,,2100,,16.13,,12.97,,3.676,
02-May-2018 22:00,10.1,,1.502,,153.6,,3.431,,2200,,14.83,,42.75,,1.084,
02-May-2018 23:00,6.9,,1.003,,295.6,,2.745,,2301,,13.71,,20,,0.942,
03-May-2018 00:00,0.4,,1.908,,342.5,,3.578,,16,,11.71,,27.16,,1.694,
03-May-2018 01:00,6.9,,1.575,,344.7,,3.039,,101,,9.86,,43.15,,1.128,
03-May-2018 02:00,3.1,,2.305,,298.4,,3.676,,202,,11.32,,19.36,,2.174,
03-May-2018 03:00,7.8,,2.42,,321.5,,3.284,,319,,10.14,,5.32,,2.41,
03-May-2018 04:00,11,,2.744,,323.5,,4.509,,435,,7.84,,8.11,,2.716,
03-May-2018 05:00,12.3,,3.123,,319.2,,4.46,,550,,7.63,,15.62,,3.007,
03-May-2018 06:00,11.6,,2.949,,347.7,,5.734,,611,,11.27,,14.08,,2.86,
03-May-2018 07:00,11.2,,4.616,,350.2,,8.43,,741,,15.07,,13.39,,4.49,
03-May-2018 08:00,11.7,,4.996,,357.9,,7.89,,811,,17.47,,14.97,,4.826,
03-May-2018 09:00,4.8,,4.393,,352.1,,7.99,,907,,19.62,,23.18,,4.033,
03-May-2018 10:00,8,,3.535,,347.2,,8.63,,1023,,20.55,,28.49,,3.097,
03-May-2018 11:00,,BA,3.027,,18.4,,7.4,,1117,,21.56,,32.82,,2.53,
03-May-2018 12:00,,BA,3.018,,353.7,,7.4,,1246,,22.39,,39.61,,2.297,
03-May-2018 13:00,24.7,,3.632,,349.9,,7.89,,1321,,23.22,,28.17,,3.192,
03-May-2018 14:00,16.1,,2.066,,356.4,,6.665,,1406,,24.2,,44.44,,1.444,
03-May-2018 15:00,10.6,,2.454,,195,,7.94,,1549,,24.65,,72,,0.515,
03-May-2018 16:00,-1.4,,4.189,,152.7,,8.09,,1601,,23.88,,19.58,,3.944,
03-May-2018 17:00,14.1,,4.198,,169.3,,6.224,,1703,,23.53,,13.46,,4.082,
03-May-2018 18:00,16.6,,3.039,,193.6,,4.95,,1806,,21.11,,7.54,,3.013,
03-May-2018 19:00,44.6,,3.268,,151,,6.812,,1957,,19.26,,27.66,,2.887,
03-May-2018 20:00,19.6,,5.41,,137.3,,8.63,,2002,,20.16,,9.14,,5.341,
03-May-2018 21:00,16.5,,3.907,,151.3,,6.028,,2126,,18.3,,12.45,,3.815,
03-May-2018 22:00,11,,2.9,,195.7,,4.411,,2204,,16.76,,10.09,,2.855,
03-May-2018 23:00,7.4,,1.923,,218.7,,3.97,,2315,,15.93,,17.17,,1.837,
04-May-2018 00:00,7.8,,0.843,,196.4,,2.402,,10,,14.39,,54.3,,0.464,
04-May-2018 01:00,13.2,,0.777,,148.4,,1.765,,158,,12.82,,50.01,,0.481,
04-May-2018 02:00,8.4,,2.099,,314.5,,3.039,,210,,9.95,,8.06,,2.078,
04-May-2018 03:00,14.5,,3.047,,327.5,,4.215,,339,,8.32,,8.56,,3.013,
04-May-2018 04:00,1.9,,2.235,,320.9,,3.578,,409,,7,,9.3,,2.205,
04-May-2018 05:00,4.8,,2.459,,310.8,,3.774,,550,,7.44,,6.46,,2.444,
04-May-2018 06:00,18.9,,1.947,,342.2,,3.578,,600,,11.77,,21.03,,1.816,
04-May-2018 07:00,12.7,,3.034,,355,,5.44,,742,,16.79,,15.2,,2.927,
04-May-2018 08:00,9.1,,2.419,,353.2,,4.754,,812,,19.87,,20.43,,2.265,
04-May-2018 09:00,11.2,,1.485,,128.2,,3.529,,954,,22.11,,52.61,,0.858,
04-May-2018 10:00,17.6,,3.819,,140,,7.35,,1057,,22.81,,17.81,,3.635,
04-May-2018 11:00,5.4,,4.892,,141.8,,8.72,,1135,,23.93,,16.41,,4.691,
04-May-2018 12:00,11,,5.264,,152.8,,9.56,,1256,,24.86,,15.15,,5.08,
04-May-2018 13:00,9.7,,5.337,,153.3,,10.05,,1331,,25.64,,18.24,,5.066,
04-May-2018 14:00,5.4,,4.781,,149.1,,9.21,,1403,,26.16,,19.85,,4.494,
04-May-2018 15:00,8.1,,4.311,,158.1,,7.99,,1512,,26.6,,19.16,,4.069,
04-May-2018 16:00,19,,4.257,,157,,8.48,,1642,,26.62,,16.48,,4.08,
04-May-2018 17:00,9.5,,4.419,,159.9,,7.74,,1732,,26.02,,11.84,,4.325,
04-May-2018 18:00,11,,3.761,,161.5,,5.293,,1826,,23.88,,6.24,,3.739,
04-May-2018 19:00,12.4,,3.995,,131.2,,7.5,,1948,,22.34,,11.14,,3.92,
04-May-2018 20:00,11.3,,4.337,,137.6,,7.6,,2047,,22.37,,11.7,,4.246,
04-May-2018 21:00,10.8,,3.365,,193.1,,6.175,,2130,,19.83,,13.76,,3.268,
04-May-2018 22:00,13.6,,3.059,,206.2,,4.754,,2211,,19.09,,14.16,,2.965,
04-May-2018 23:00,10.7,,1.609,,145.2,,2.745,,2323,,16.86,,9.07,,1.589,
05-May-2018 00:00,10.2,,1.053,,160.4,,3.039,,59,,16.18,,52.31,,0.614,
05-May-2018 01:00,10.1,,1.526,,311.6,,2.745,,100,,14.22,,20.4,,1.429,
05-May-2018 02:00,10.6,,1.51,,230.9,,2.304,,218,,15.59,,38.36,,1.172,
05-May-2018 03:00,9.6,,0.705,,134,,1.471,,350,,12.17,,42.01,,0.515,
05-May-2018 04:00,11.6,,1.491,,259.5,,2.451,,441,,11.17,,71,,0.344,
05-May-2018 05:00,13.2,,1.779,,318,,3.137,,532,,10.27,,51.29,,1.066,
05-May-2018 06:00,26.2,,1.956,,340,,3.333,,640,,12.57,,20.05,,1.837,
05-May-2018 07:00,10.9,,1.934,,356.8,,3.235,,740,,16.95,,18.86,,1.829,
05-May-2018 08:00,8.1,,0.959,,18.1,,2.451,,808,,21.36,,49.82,,0.596,
05-May-2018 09:00,9.3,,1.434,,148.2,,5.832,,951,,24.04,,53.77,,0.802,
05-May-2018 10:00,13.2,,4.937,,157.5,,8.72,,1032,,25.3,,19.37,,4.655,
05-May-2018 11:00,11,,4.829,,128.9,,9.6,,1147,,26.12,,18.92,,4.565,
05-May-2018 12:00,9.6,,6.009,,155.2,,9.75,,1223,,26.61,,16.07,,5.773,
05-May-2018 13:00,9.8,,5.885,,168.6,,9.6,,1335,,26.93,,16.41,,5.643,
05-May-2018 14:00,9.8,,6.697,,175.6,,11.71,,1426,,27.15,,10.55,,6.583,
05-May-2018 15:00,12.2,,6.796,,173.5,,10.73,,1552,,27.31,,10.11,,6.69,
05-May-2018 16:00,12.7,,7.11,,166.6,,11.12,,1647,,27.19,,9.25,,7.02,
05-May-2018 17:00,17.4,,6.875,,164.8,,10.54,,1712,,26.57,,7.79,,6.811,
05-May-2018 18:00,13.5,,5.239,,159.4,,7.99,,1804,,25.37,,8.49,,5.181,
05-May-2018 19:00,14.1,,6.359,,133.5,,11.12,,1943,,24.18,,9.58,,6.27,
05-May-2018 20:00,13.3,,6.249,,129.8,,10.05,,2022,,23.81,,10.01,,6.154,
05-May-2018 21:00,13.3,,3.997,,189.6,,9.36,,2137,,22.22,,11.03,,3.923,
05-May-2018 22:00,12.5,,3.444,,196.2,,5.146,,2259,,20.44,,14.25,,3.338,
05-May-2018 23:00,14,,4.505,,184.4,,8.23,,2310,,19.46,,11.41,,4.415,
06-May-2018 00:00,11.7,,5.029,,163.7,,8.92,,39,,21.06,,22.63,,4.637,
06-May-2018 01:00,13.5,,5.451,,175.3,,9.6,,114,,20.66,,9.65,,5.374,
06-May-2018 02:00,14.4,,5.055,,178.1,,8.18,,208,,19.47,,12.25,,4.94,
06-May-2018 03:00,14.3,,1.757,,288.9,,5.489,,353,,19.91,,60.83,,0.766,
06-May-2018 04:00,13.4,,3.113,,337,,9.56,,449,,22.02,,59.22,,1.449,
06-May-2018 05:00,20.8,,1.884,,124.2,,7.4,,500,,22.07,,41.36,,1.393,
06-May-2018 06:00,23,,4.863,,127.9,,7.84,,657,,21.87,,11.12,,4.772,
06-May-2018 07:00,17.5,,3.95,,151.9,,7.2,,705,,21.48,,55.63,,2.086,
06-May-2018 08:00,9.3,,2.795,,329.6,,6.42,,811,,20.96,,43.53,,1.988,
06-May-2018 09:00,18.8,,5.993,,156.2,,11.27,,956,,25.11,,14.67,,5.796,
06-May-2018 10:00,36.2,,8.88,,170,,14.65,,1048,,27.14,,15.61,,8.55,
06-May-2018 11:00,40.3,,11.04,,163.9,,16.22,,1153,,28.42,,8.6,,10.92,
06-May-2018 12:00,41.8,,12.36,,159,,17.4,,1249,,29,,8.23,,12.23,
06-May-2018 13:00,49.6,,12.47,,163.2,,18.62,,1328,,29.88,,8.48,,12.33,
06-May-2018 14:00,30.9,,10.98,,159.1,,15.88,,1436,,30.46,,10.46,,10.8,
06-May-2018 15:00,24.9,,10.69,,156.2,,16.91,,1554,,30.8,,9.32,,10.55,
06-May-2018 16:00,26.8,,10.11,,128.4,,16.22,,1654,,29.65,,17.53,,9.64,
06-May-2018 17:00,36.3,,10.51,,121.7,,16.27,,1715,,28.15,,8.12,,10.41,
06-May-2018 18:00,10,,7.59,,136.9,,11.61,,1823,,27.05,,9.84,,7.48,
06-May-2018 19:00,9.7,,6.396,,151.8,,9.21,,1907,,25.62,,8.19,,6.331,
06-May-2018 20:00,10.5,,4.827,,180.4,,7.69,,2001,,24.14,,12.13,,4.719,
06-May-2018 21:00,10.7,,3.136,,177.6,,5.734,,2102,,22.27,,22.37,,2.897,
06-May-2018 22:00,11.6,,2.154,,155.1,,3.872,,2224,,20.19,,18.2,,2.046,
06-May-2018 23:00,10.2,,3.399,,139.8,,5.685,,2325,,20.79,,8.39,,3.362,
07-May-2018 00:00,14.6,,2.749,,161.5,,4.215,,20,,20.56,,18.21,,2.61,
07-May-2018 01:00,12.7,,1.084,,248.2,,2.794,,156,,19.17,,64.32,,0.4,
07-May-2018 02:00,4.9,,2.421,,322.4,,4.852,,208,,16.4,,9.92,,2.384,
07-May-2018 03:00,8.8,,1.833,,319.6,,3.088,,315,,14.59,,17.3,,1.75,
07-May-2018 04:00,12.2,,0.907,,311.9,,2.01,,459,,15.11,,19.89,,0.853,
07-May-2018 05:00,14.4,,2.285,,324.4,,3.97,,513,,13.97,,17.8,,2.174,
07-May-2018 06:00,17.6,,1.739,,341.7,,4.166,,632,,15.69,,14.44,,1.684,
07-May-2018 07:00,17.2,,3.584,,350.9,,6.812,,759,,20.56,,22.45,,3.309,
07-May-2018 08:00,18.7,,4.568,,350.6,,7.99,,835,,22.98,,13.54,,4.44,
07-May-2018 09:00,10.3,,3.331,,355.1,,6.42,,922,,25.33,,21.72,,3.091,
07-May-2018 10:00,10.7,,1.741,,30.2,,5.097,,1005,,27.25,,49.87,,1.081,
07-May-2018 11:00,10.6,,1.973,,101.2,,4.509,,1150,,28.6,,38.78,,1.521,
07-May-2018 12:00,26.6,,2.691,,139,,6.616,,1236,,29.29,,31.38,,2.287,
07-May-2018 13:00,13.3,,3.052,,154.9,,6.665,,1322,,29.99,,33.66,,2.525,
07-May-2018 14:00,8.4,,3.545,,164,,7.74,,1430,,30.65,,27.14,,3.147,
07-May-2018 15:00,10.8,,3.826,,147.8,,7.2,,1515,,30.91,,24.64,,3.472,
07-May-2018 16:00,8.8,,3.765,,162.7,,6.616,,1623,,31.09,,15.52,,3.627,
07-May-2018 17:00,13.5,,3.465,,172.5,,6.126,,1701,,30.64,,12.98,,3.376,
07-May-2018 18:00,13,,3.154,,176.2,,4.754,,1811,,27.19,,10.11,,3.105,
07-May-2018 19:00,15.8,,3.105,,139.3,,7.01,,1958,,24.8,,10.7,,3.051,
07-May-2018 20:00,17.3,,3.459,,173.2,,6.175,,2000,,24.46,,27.33,,3.065,
07-May-2018 21:00,15.9,,3.116,,206.2,,4.215,,2104,,23.52,,8.91,,3.079,
07-May-2018 22:00,13.1,,1.709,,176.1,,3.725,,2201,,20.7,,52.29,,0.997,
07-May-2018 23:00,13.7,,1.303,,317.6,,2.794,,2330,,17.57,,37.47,,1.024,
08-May-2018 00:00,11.3,,1.396,,284.3,,2.451,,0,,18.68,,5.8,,1.389,
08-May-2018 01:00,13.6,,2.728,,329,,5.097,,159,,14.76,,12.77,,2.66,
08-May-2018 02:00,10.2,,2.315,,320.2,,4.558,,208,,13.23,,13.45,,2.251,
08-May-2018 03:00,10.3,,2.086,,302.9,,3.235,,346,,14.32,,7.42,,2.068,
08-May-2018 04:00,12.2,,2.081,,303.8,,2.892,,431,,14.31,,7.49,,2.063,
08-May-2018 05:00,15.4,,2.145,,294.6,,3.137,,553,,14.78,,12.4,,2.094,
08-May-2018 06:00,18.5,,1.424,,336.2,,3.137,,606,,17.47,,26.91,,1.267,
08-May-2018 07:00,18.2,,1.488,,319.3,,3.333,,721,,20.68,,29.32,,1.293,
08-May-2018 08:00,26.1,,1.16,,189.5,,3.235,,837,,24.18,,44.14,,0.816,
08-May-2018 09:00,21.5,,1.214,,158.7,,2.941,,917,,26.53,,30.26,,1.044,
08-May-2018 10:00,9.5,,1.668,,126.9,,4.411,,1017,,28.3,,27.56,,1.475,
08-May-2018 11:00,9.7,,2.768,,147.6,,8.28,,1149,,30.01,,34.08,,2.278,
08-May-2018 12:00,9.7,,4.282,,152,,8.67,,1259,,31.19,,19.1,,4.044,
08-May-2018 13:00,17.7,,5.622,,153.2,,13.72,,1352,,31.96,,14.06,,5.453,
08-May-2018 14:00,13.9,,5.298,,149.4,,9.21,,1410,,32.46,,21.15,,4.936,
08-May-2018 15:00,13.6,,4.872,,157.3,,9.51,,1542,,32.59,,17.21,,4.652,
08-May-2018 16:00,14.4,,6.335,,167.4,,9.51,,1624,,32.07,,9.13,,6.255,
08-May-2018 17:00,20.8,,5.255,,170.2,,8.53,,1703,,30.88,,7.91,,5.205,
08-May-2018 18:00,19,,4.026,,172.7,,8.48,,1816,,29.52,,7.92,,3.987,
08-May-2018 19:00,22.3,,2.234,,153,,4.019,,1920,,27.07,,23.08,,2.053,
08-May-2018 20:00,24.5,,2.408,,229.2,,3.529,,2049,,26.22,,24.32,,2.191,
08-May-2018 21:00,19.5,,1.488,,265.7,,3.333,,2108,,23.56,,65.43,,0.517,
08-May-2018 22:00,15.6,,2.566,,309,,4.313,,2243,,21.75,,21.57,,2.384,
08-May-2018 23:00,13.3,,1.581,,322,,4.019,,2302,,18.43,,29.01,,1.378,
09-May-2018 00:00,11.9,,2.168,,305.2,,4.068,,50,,20.23,,20.35,,2.032,
09-May-2018 01:00,13.3,,2.794,,321.3,,4.166,,158,,18.22,,16.74,,2.675,
09-May-2018 02:00,5.4,,1.909,,329.1,,4.509,,203,,16.4,,34.73,,1.558,
09-May-2018 03:00,12.5,,1.995,,306,,4.068,,333,,17.63,,36.14,,1.598,
09-May-2018 04:00,14.7,,1.881,,205.4,,4.754,,426,,17.08,,58.41,,0.903,
09-May-2018 05:00,30.4,,1.303,,315.8,,3.48,,549,,14.62,,64.63,,0.474,
09-May-2018 06:00,36.8,,1.194,,265.1,,5.391,,636,,19.81,,61.73,,0.501,
09-May-2018 07:00,10.7,,0.993,,95.3,,2.843,,707,,23.9,,57.85,,0.486,
09-May-2018 08:00,16.1,,1.679,,121.2,,4.901,,841,,26.2,,38.01,,1.309,
09-May-2018 09:00,13.5,,4.06,,143.5,,8.48,,941,,28.37,,15.33,,3.914,
09-May-2018 10:00,11.7,,5.49,,139.7,,10.29,,1032,,30.99,,16.37,,5.266,
09-May-2018 11:00,2.9,,3.309,,316.4,,9.56,,1142,,32.23,,54.01,,1.837,
09-May-2018 12:00,7.2,,3.861,,277,,11.76,,1216,,32.62,,61.01,,1.671,
09-May-2018 13:00,4.4,,4.527,,298.9,,9.31,,1334,,32.42,,30.79,,3.873,
09-May-2018 14:00,6,,4.431,,260.4,,14.06,,1423,,32.12,,43.09,,3.177,
09-May-2018 15:00,6.9,,3.384,,300.4,,7.35,,1518,,31.88,,36.68,,2.69,
09-May-2018 16:00,5.7,,3.74,,308.9,,7.94,,1619,,31.36,,22.04,,3.463,
09-May-2018 17:00,9,,3.814,,0.2,,7.74,,1742,,30.43,,37.24,,3.008,
09-May-2018 18:00,18.2,,4.365,,2.5,,7.35,,1810,,27.8,,11.23,,4.281,
09-May-2018 19:00,16.1,,3.495,,332.8,,5.734,,1908,,24.54,,27.45,,3.094,
09-May-2018 20:00,19.4,,2.122,,234.6,,3.627,,2019,,23.49,,47.55,,1.391,
09-May-2018 21:00,14.1,,2.27,,327.5,,4.264,,2147,,19.86,,20.66,,2.123,
09-May-2018 22:00,16.5,,2.194,,96.3,,5.195,,2225,,19.63,,44.7,,1.526,
09-May-2018 23:00,14.5,,1.321,,305.5,,2.745,,2321,,19.93,,37.39,,1.039,
10-May-2018 00:00,17.9,,2.61,,341.7,,5.44,,39,,18.8,,28.88,,2.279,
10-May-2018 01:00,17.9,,4.997,,335.5,,9.11,,135,,20.06,,13.9,,4.85,
10-May-2018 02:00,16.6,,4.106,,355.2,,8.33,,259,,18.39,,16.51,,3.936,
10-May-2018 03:00,15.9,,5.956,,328.5,,10.88,,309,,19.6,,12.1,,5.823,
10-May-2018 04:00,11.1,,5.295,,328.4,,10.19,,426,,19.21,,12.68,,5.166,
10-May-2018 05:00,21,,3.888,,345.2,,8.77,,506,,17.79,,22.61,,3.585,
10-May-2018 06:00,15.2,,3.826,,359.6,,7.25,,656,,18.8,,16.28,,3.671,
10-May-2018 07:00,16.7,,6.154,,336.4,,9.95,,736,,20.97,,12.8,,6.001,
10-May-2018 08:00,15.6,,7.37,,335.1,,11.86,,840,,22.85,,12.01,,7.21,
10-May-2018 09:00,13.4,,5.594,,337.9,,9.65,,919,,24.87,,17.97,,5.318,
10-May-2018 10:00,14.4,,3.577,,338.9,,8.04,,1020,,26.5,,27.4,,3.168,
10-May-2018 11:00,14,,2.296,,193.8,,6.077,,1145,,27.44,,66.82,,0.734,
10-May-2018 12:00,14.3,,2.481,,142.6,,6.322,,1219,,28.28,,43.92,,1.751,
10-May-2018 13:00,13,,4.065,,142.1,,9.56,,1340,,28.58,,27.19,,3.607,
10-May-2018 14:00,22.9,,4.373,,153.6,,9.46,,1434,,29.17,,18.36,,4.148,
10-May-2018 15:00,18.3,,4.75,,165,,9.26,,1515,,29.45,,17.51,,4.528,
10-May-2018 16:00,23.2,,4.219,,162.7,,7.74,,1638,,29.39,,17.19,,4.029,
10-May-2018 17:00,22.7,,4.316,,179,,7.06,,1723,,28.76,,11.45,,4.23,
10-May-2018 18:00,40.6,,3.156,,178.3,,6.371,,1807,,26.79,,12.19,,3.085,
10-May-2018 19:00,27.6,,1.32,,137.2,,2.647,,1945,,24.39,,20.97,,1.231,
10-May-2018 20:00,34.3,,1.045,,181.3,,2.108,,2036,,22.61,,54.13,,0.579,
10-May-2018 21:00,21.9,,1.381,,177.8,,3.48,,2157,,21.78,,50.23,,0.85,
10-May-2018 22:00,23.1,,2.647,,346.3,,5.146,,2229,,20.91,,20.28,,2.481,
10-May-2018 23:00,10,,3.815,,329.3,,6.567,,2349,,21.08,,9.77,,3.76,
11-May-2018 00:00,11.4,,3.094,,7.7,,6.812,,2,,19,,19.89,,2.907,
11-May-2018 01:00,11.6,,2.8,,25.9,,6.469,,154,,17.21,,19.98,,2.63,
11-May-2018 02:00,10.1,,3.066,,1.9,,5.391,,233,,17.21,,13.83,,2.977,
11-May-2018 03:00,10.7,,2.646,,16.3,,4.95,,309,,16.38,,14.61,,2.56,
11-May-2018 04:00,10.8,,3.002,,2.9,,5.587,,447,,15.55,,23.76,,2.744,
11-May-2018 05:00,15.6,,1.839,,351.2,,4.803,,507,,15.37,,35.35,,1.489,
11-May-2018 06:00,11.4,,1.35,,15.9,,3.186,,659,,17.05,,18.18,,1.282,
11-May-2018 07:00,9.4,,2.708,,1.3,,5.293,,707,,20.04,,21.68,,2.514,
11-May-2018 08:00,6.6,,1.839,,66.5,,4.215,,859,,21.72,,50.8,,1.116,
11-May-2018 09:00,9.7,,2.489,,149.7,,5.293,,901,,23.47,,23.32,,2.283,
11-May-2018 10:00,8.1,,2.266,,156.6,,5.048,,1041,,25.34,,34.26,,1.86,
11-May-2018 11:00,5.6,,2.269,,133.7,,5.734,,1159,,26.61,,36.82,,1.8,
11-May-2018 12:00,6.6,,2.511,,289.6,,7.6,,1233,,28.12,,60.81,,1.096,
11-May-2018 13:00,17.1,,6.6,,336.8,,13.23,,1351,,28.83,,17.09,,6.306,
11-May-2018 14:00,23.9,,10.09,,342.4,,17.69,,1442,,27.96,,13.95,,9.79,
11-May-2018 15:00,46.9,,10.97,,353.5,,17.89,,1548,,26.84,,14.65,,10.61,
11-May-2018 16:00,146.2,,11.37,,338.4,,21.02,,1655,,24.47,,16.93,,10.88,
11-May-2018 17:00,693.4,,14.96,,326,,24.6,,1754,,18.28,,10.71,,14.69,
11-May-2018 18:00,945,,15.3,,329.9,,25.58,,1843,,14.94,,11.31,,15,
11-May-2018 19:00,439.2,,14.38,,323.2,,23.08,,1908,,12.99,,11.05,,14.11,
11-May-2018 20:00,74.4,,12.28,,315.2,,21.85,,2012,,12.73,,11.79,,12.02,
11-May-2018 21:00,14.5,,9.74,,306.4,,18.18,,2101,,13.07,,10.78,,9.57,
11-May-2018 22:00,10.1,,7.25,,301.3,,13.62,,2210,,13.55,,11.86,,7.09,
11-May-2018 23:00,12,,6.223,,301.1,,10.93,,2342,,13.49,,11.61,,6.095,
12-May-2018 00:00,18.3,,6.164,,312.8,,10.34,,8,,13.06,,11.04,,6.05,
12-May-2018 01:00,19.9,,5.237,,307,,9.6,,107,,12.37,,10.78,,5.144,
12-May-2018 02:00,21.8,,5.572,,314.2,,10.34,,231,,11.89,,16.47,,5.342,
12-May-2018 03:00,17.8,,2.975,,342.1,,5.44,,326,,10.13,,14.48,,2.88,
12-May-2018 04:00,23.1,,3.703,,357.3,,8.09,,459,,9.92,,20.14,,3.474,
12-May-2018 05:00,21.3,,3.255,,346.9,,8.53,,505,,10.02,,31.8,,2.753,
12-May-2018 06:00,18.2,,3.781,,12.1,,7.25,,652,,11.32,,14.81,,3.654,
12-May-2018 07:00,17.9,,5.441,,355.1,,8.23,,735,,12.6,,14.18,,5.274,
12-May-2018 08:00,12.5,,5.743,,343.8,,10.49,,817,,14.37,,15.69,,5.528,
12-May-2018 09:00,8.5,,3.726,,334.3,,7.74,,904,,15.57,,37.51,,2.927,
12-May-2018 10:00,23.2,,2.34,,166.9,,7.4,,1052,,16.99,,43.85,,1.654,
12-May-2018 11:00,17.3,,4.744,,151.3,,11.61,,1125,,17.45,,23.11,,4.357,
12-May-2018 12:00,23.3,,6.566,,148.6,,11.76,,1243,,18.43,,18.35,,6.229,
12-May-2018 13:00,26.2,,6.166,,136.4,,11.61,,1318,,19.75,,17.43,,5.88,
12-May-2018 14:00,35.1,,4.896,,159.2,,9.51,,1400,,21.01,,24.9,,4.433,
12-May-2018 15:00,32.7,,3.514,,182.3,,7.79,,1500,,21.88,,24.57,,3.191,
12-May-2018 16:00,24.4,,3.23,,161.5,,9.85,,1637,,21.87,,30.15,,2.783,
12-May-2018 17:00,40.6,,7.75,,338.2,,16.51,,1740,,18.69,,29.25,,6.739,
12-May-2018 18:00,24.6,,9.26,,329.9,,16.02,,1838,,16.59,,10.94,,9.09,
12-May-2018 19:00,33.9,,9.9,,320.6,,17.35,,1927,,15.03,,10.14,,9.74,
12-May-2018 20:00,13.6,,7.37,,326.2,,13.62,,2003,,14.3,,11.76,,7.22,
12-May-2018 21:00,10.9,,6.739,,323.5,,11.71,,2108,,14.06,,11,,6.615,
12-May-2018 22:00,11.1,,5.978,,324.3,,9.36,,2231,,13.44,,11.12,,5.865,
12-May-2018 23:00,11.2,,5.138,,337.5,,9.02,,2318,,12.42,,10.67,,5.048,
13-May-2018 00:00,9.1,,4.151,,347.6,,6.616,,54,,11.15,,10.53,,4.081,
13-May-2018 01:00,9.6,,4.478,,356.6,,6.763,,102,,10.71,,11.4,,4.389,
13-May-2018 02:00,9.8,,4.987,,347.7,,8.09,,225,,10.42,,12.32,,4.872,
13-May-2018 03:00,9.6,,4.152,,10.5,,7.01,,338,,9.53,,11.22,,4.072,
13-May-2018 04:00,10,,3.463,,12.9,,4.999,,400,,8.89,,12.53,,3.38,
13-May-2018 05:00,10.7,,2.032,,19.7,,4.509,,513,,8.4,,23.78,,1.857,
13-May-2018 06:00,9.8,,2.932,,2.8,,5.587,,658,,10.9,,17.14,,2.801,
13-May-2018 07:00,8.4,,3.684,,8.4,,5.979,,716,,13.63,,14.82,,3.561,
13-May-2018 08:00,14.8,,2.419,,2.4,,5.44,,800,,15.29,,21.98,,2.241,
13-May-2018 09:00,7.7,,3.088,,345.3,,8.04,,929,,17.44,,32.25,,2.598,
13-May-2018 10:00,10,,3.466,,317.6,,8.92,,1036,,18.94,,26.31,,3.1,
13-May-2018 11:00,5,,2.857,,303,,6.714,,1118,,20.62,,47.85,,1.86,
13-May-2018 12:00,4.1,,2.407,,198.1,,5.097,,1220,,21.42,,27.24,,2.135,
13-May-2018 13:00,5.7,,1.827,,203.1,,7.2,,1354,,22,,50.19,,1.126,
13-May-2018 14:00,4.6,,2.284,,233.6,,6.371,,1437,,22.9,,47.02,,1.515,
13-May-2018 15:00,10.3,,2.468,,217.4,,12.2,,1559,,22.46,,32.6,,2.069,
13-May-2018 16:00,10.8,,4.391,,269.3,,12.1,,1603,,21.59,,46.06,,2.971,
13-May-2018 17:00,11.4,,2.286,,236.6,,7.25,,1700,,21.91,,43.64,,1.622,
13-May-2018 18:00,16.5,,2.671,,155.9,,4.803,,1829,,21.26,,14.5,,2.586,
13-May-2018 19:00,20.8,,2.725,,147.7,,3.97,,1900,,20.43,,14.67,,2.635,
13-May-2018 20:00,19.7,,4.404,,336.4,,9.7,,2059,,19.13,,21.64,,4.09,
13-May-2018 21:00,14.5,,7.41,,327.8,,12.84,,2107,,17.28,,10.87,,7.27,
13-May-2018 22:00,8.3,,7.13,,321.6,,12.5,,2201,,17.01,,10.43,,7.01,
13-May-2018 23:00,6.8,,6.2,,315.8,,10.83,,2326,,16.69,,11.96,,6.065,
14-May-2018 00:00,6.6,,4.823,,319.5,,9.75,,9,,16.3,,19.97,,4.529,
14-May-2018 01:00,9,,4.443,,353.1,,8.28,,145,,15.26,,13.5,,4.32,
14-May-2018 02:00,6.3,,4.378,,343.3,,7.01,,211,,14.68,,15.69,,4.214,
14-May-2018 03:00,6.9,,3.149,,329.4,,5.293,,326,,13.63,,13,,3.068,
14-May-2018 04:00,5.1,,3.22,,318.7,,4.852,,432,,13,,11.83,,3.152,
14-May-2018 05:00,10,,2.316,,2,,3.382,,523,,12.61,,35.87,,1.862,
14-May-2018 06:00,13.9,,3.223,,10.6,,4.95,,638,,14.43,,14.33,,3.122,
14-May-2018 07:00,6.3,,4.32,,355.8,,8.48,,754,,16.73,,14.04,,4.19,
14-May-2018 08:00,6.6,,4.359,,358.2,,9.07,,808,,18.44,,18.12,,4.14,
14-May-2018 09:00,5.7,,2.652,,339,,6.224,,914,,20.35,,48.1,,1.717,
14-May-2018 10:00,5.6,,1.968,,265.1,,5.391,,1005,,20.96,,41.48,,1.451,
14-May-2018 11:00,,AX,2.496,,194.1,,5.93,,1122,,20.82,,30.96,,2.131,
14-May-2018 12:00,3,,1.869,,255.7,,4.264,,1200,,20.99,,60.24,,0.835,
14-May-2018 13:00,10.3,,2.747,,276.8,,5.93,,1301,,21.5,,49.7,,1.713,
14-May-2018 14:00,17.5,,4.675,,316.6,,8.48,,1420,,19.79,,22.17,,4.325,
14-May-2018 15:00,10.2,,3.397,,298.5,,7.35,,1515,,17.46,,19.83,,3.194,
14-May-2018 16:00,4,,2.22,,7.2,,5.587,,1659,,18.69,,43.16,,1.59,
14-May-2018 17:00,9.5,,4.928,,340.6,,10.24,,1722,,18.65,,13.81,,4.785,
14-May-2018 18:00,8.7,,4.206,,345.3,,6.714,,1823,,17.75,,10.86,,4.131,
14-May-2018 19:00,7.4,,3.558,,328.1,,6.469,,1922,,17.39,,10.72,,3.495,
14-May-2018 20:00,7.9,,3.208,,337.4,,5.489,,2009,,16.64,,13.86,,3.114,